{"data":{"norad_id":66923,"epoch":"2026-05-25T04:18:22.078944Z","epoch_age_seconds":59410,"freshness":"FRESH","line1":"1 66923U 25285J   26145.17942221 -.00000098  00000+0  56697-4 0  9998","line2":"2 66923  50.0089 228.2133 0001086 211.6427 148.4380 13.29323782 23002","mean_motion":13.29323782,"eccentricity":0.0001086,"inclination_deg":50.0089,"raan_deg":228.2133,"arg_perigee_deg":211.6427,"mean_anomaly_deg":148.438,"bstar":5.6697e-5,"rev_number":2300,"period_min":108.32575325129,"perigee_km":1148.4974636845,"apogee_km":1150.1324262469,"semimajor_km":7527.4519449657,"source":"CELESTRAK","updated_at":"2026-05-25T13:38:06.595760Z"}}